| time (UTC) | temp F | wind direction | speed knots | gust knots | rain 1hr in | rain 24hr in | rain mn in | humidity % | barometer mb |
| 20260506145436 | 58 | 282 | 3.5 | 7.8 | 0.00 | 0.27 | 0.24 | 66 | 1008.5 |
| 20260506144709 | 58 | 284 | 2.6 | 7.0 | 0.00 | 0.27 | 0.24 | 66 | 1008.5 |
| 20260506144428 | 58 | 309 | 1.7 | 7.0 | 0.00 | 0.27 | 0.24 | 67 | 1008.5 |
| 20260506143709 | 58 | 266 | 1.7 | 7.0 | 0.00 | 0.27 | 0.24 | 67 | 1008.6 |
| 20260506143436 | 58 | 312 | 1.7 | 4.3 | 0.00 | 0.28 | 0.24 | 68 | 1008.6 |
| 20260506142709 | 58 | 241 | 1.7 | 3.5 | 0.00 | 0.28 | 0.24 | 68 | 1008.7 |
| 20260506141709 | 58 | 269 | 1.7 | 6.1 | 0.00 | 0.28 | 0.24 | 68 | 1008.7 |
| 20260506141210 | 57 | 292 | 2.6 | 6.1 | 0.00 | 0.28 | 0.24 | 68 | 1008.8 |
| 20260506140934 | 57 | 227 | 2.6 | 6.1 | 0.01 | 0.28 | 0.24 | 68 | 1008.7 |
| 20260506140210 | 57 | 259 | 2.6 | 7.8 | 0.01 | 0.29 | 0.24 | 68 | 1008.8 |
| 20260506135709 | 56 | 271 | 3.5 | 7.8 | 0.02 | 0.30 | 0.24 | 68 | 1008.9 |
| 20260506135210 | 56 | 242 | 4.3 | 9.6 | 0.02 | 0.32 | 0.24 | 68 | 1008.9 |
| 20260506134709 | 56 | 268 | 3.5 | 9.6 | 0.02 | 0.34 | 0.24 | 68 | 1008.8 |
| 20260506134209 | 56 | 250 | 3.5 | 9.6 | 0.02 | 0.34 | 0.24 | 68 | 1008.9 |
| 20260506133709 | 56 | 279 | 4.3 | 9.6 | 0.02 | 0.35 | 0.24 | 68 | 1008.9 |
| 20260506133209 | 56 | 254 | 4.3 | 9.6 | 0.02 | 0.35 | 0.24 | 68 | 1008.9 |
| 20260506132710 | 56 | 236 | 5.2 | 11.3 | 0.02 | 0.35 | 0.24 | 69 | 1008.8 |
| 20260506132209 | 56 | 304 | 5.2 | 11.3 | 0.02 | 0.35 | 0.24 | 69 | 1008.8 |
| 20260506131709 | 56 | 292 | 5.2 | 9.6 | 0.03 | 0.36 | 0.24 | 69 | 1008.9 |
| 20260506131209 | 56 | 271 | 5.2 | 13.9 | 0.04 | 0.36 | 0.24 | 69 | 1008.8 |
| 20260506130709 | 56 | 267 | 5.2 | 13.9 | 0.04 | 0.36 | 0.23 | 69 | 1008.7 |
| 20260506130209 | 56 | 292 | 5.2 | 13.9 | 0.04 | 0.38 | 0.23 | 69 | 1008.7 |
| 20260506125929 | 56 | 265 | 5.2 | 13.9 | 0.03 | 0.38 | 0.22 | 69 | 1008.7 |
| 20260506125210 | 56 | 262 | 7.0 | 13.9 | 0.03 | 0.39 | 0.22 | 70 | 1008.6 |
| 20260506124709 | 56 | 201 | 7.0 | 13.9 | 0.03 | 0.39 | 0.22 | 70 | 1008.6 |
| 20260506124209 | 56 | 260 | 5.2 | 12.2 | 0.03 | 0.39 | 0.22 | 70 | 1008.7 |
| 20260506123710 | 56 | 287 | 4.3 | 11.3 | 0.03 | 0.40 | 0.22 | 70 | 1008.6 |
| 20260506123210 | 56 | 256 | 4.3 | 10.4 | 0.02 | 0.40 | 0.21 | 70 | 1008.6 |
| 20260506122709 | 56 | 271 | 6.1 | 12.2 | 0.02 | 0.40 | 0.21 | 70 | 1008.5 |
| 20260506122209 | 56 | 290 | 6.1 | 12.2 | 0.02 | 0.41 | 0.21 | 69 | 1008.5 |
| 20260506121210 | 57 | 236 | 6.1 | 13.0 | 0.01 | 0.42 | 0.20 | 68 | 1008.6 |
| 20260506120709 | 57 | 247 | 7.0 | 13.0 | 0.00 | 0.41 | 0.19 | 68 | 1008.5 |
| 20260506120210 | 57 | 265 | 7.0 | 13.9 | 0.00 | 0.41 | 0.19 | 68 | 1008.6 |
| 20260506115709 | 57 | 241 | 6.1 | 13.9 | 0.00 | 0.41 | 0.19 | 67 | 1008.5 |
| 20260506115210 | 57 | 264 | 5.2 | 10.4 | 0.00 | 0.41 | 0.19 | 67 | 1008.6 |
| 20260506114709 | 58 | 234 | 4.3 | 9.6 | 0.00 | 0.41 | 0.19 | 67 | 1008.4 |
| 20260506114209 | 57 | 280 | 5.2 | 11.3 | 0.00 | 0.41 | 0.19 | 68 | 1008.5 |
| 20260506113709 | 57 | 264 | 5.2 | 11.3 | 0.00 | 0.41 | 0.19 | 67 | 1008.4 |
| 20260506113209 | 57 | 248 | 5.2 | 13.0 | 0.00 | 0.41 | 0.19 | 67 | 1008.5 |
| 20260506112709 | 58 | 350 | 6.1 | 13.9 | 0.00 | 0.41 | 0.19 | 67 | 1008.6 |
| 20260506112426 | 58 | 250 | 6.1 | 13.9 | 0.00 | 0.41 | 0.19 | 66 | 1008.5 |
| 20260506111659 | 58 | 229 | 5.2 | 17.4 | 0.00 | 0.41 | 0.19 | 66 | 1008.4 |
| 20260506111159 | 58 | 267 | 6.1 | 17.4 | 0.00 | 0.41 | 0.19 | 66 | 1008.4 |
| 20260506110659 | 58 | 200 | 5.2 | 11.3 | 0.00 | 0.41 | 0.19 | 65 | 1008.2 |
| 20260506110200 | 58 | 271 | 4.3 | 11.3 | 0.00 | 0.41 | 0.19 | 65 | 1008.1 |
| 20260506105700 | 58 | 250 | 4.3 | 11.3 | 0.00 | 0.41 | 0.19 | 65 | 1008.2 |
| 20260506105200 | 58 | 239 | 5.2 | 12.2 | 0.00 | 0.41 | 0.19 | 65 | 1008.1 |
| 20260506104659 | 58 | 267 | 6.1 | 12.2 | 0.00 | 0.41 | 0.19 | 65 | 1008.1 |
| 20260506104159 | 58 | 238 | 5.2 | 11.3 | 0.00 | 0.41 | 0.19 | 65 | 1008.0 |
| 20260506103659 | 58 | 264 | 4.3 | 10.4 | 0.00 | 0.41 | 0.19 | 66 | 1008.0 |
| 20260506103159 | 58 | 290 | 4.3 | 10.4 | 0.00 | 0.41 | 0.19 | 66 | 1008.0 |
| 20260506102659 | 58 | 230 | 3.5 | 9.6 | 0.00 | 0.41 | 0.19 | 66 | 1008.1 |
| 20260506102200 | 58 | 252 | 2.6 | 7.8 | 0.00 | 0.41 | 0.19 | 67 | 1008.1 |
| 20260506101659 | 57 | 173 | 2.6 | 7.0 | 0.00 | 0.41 | 0.19 | 67 | 1008.1 |
| 20260506101159 | 57 | 263 | 3.5 | 7.0 | 0.00 | 0.41 | 0.19 | 67 | 1008.2 |
| 20260506100700 | 56 | 194 | 4.3 | 9.6 | 0.01 | 0.41 | 0.19 | 67 | 1008.1 |
| 20260506100212 | 56 | 192 | 4.3 | 9.6 | 0.01 | 0.41 | 0.19 | 67 | 1008.2 |
| 20260506095700 | 56 | 155 | 5.2 | 11.3 | 0.02 | 0.41 | 0.19 | 67 | 1008.1 |
| 20260506095200 | 56 | 214 | 5.2 | 11.3 | 0.02 | 0.41 | 0.19 | 67 | 1008.0 |
| 20260506094916 | 56 | 208 | 5.2 | 9.6 | 0.02 | 0.41 | 0.19 | 67 | 1008.1 |
| 20260506094151 | 55 | 219 | 5.2 | 8.7 | 0.02 | 0.41 | 0.19 | 67 | 1008.2 |
| 20260506093643 | 55 | 174 | 5.2 | 8.7 | 0.02 | 0.41 | 0.19 | 67 | 1008.2 |
| 20260506093143 | 55 | 246 | 5.2 | 8.7 | 0.02 | 0.41 | 0.19 | 67 | 1008.2 |
| 20260506092407 | 55 | 214 | 3.5 | 7.0 | 0.02 | 0.41 | 0.19 | 67 | 1008.1 |
| 20260506091143 | 55 | 228 | 4.3 | 8.7 | 0.02 | 0.41 | 0.19 | 67 | 1008.1 |
| 20260506090643 | 55 | 183 | 3.5 | 11.3 | 0.02 | 0.40 | 0.18 | 67 | 1008.0 |
| 20260506090144 | 55 | 220 | 2.6 | 11.3 | 0.02 | 0.39 | 0.17 | 67 | 1008.0 |
| 20260506085643 | 55 | 188 | 2.6 | 6.1 | 0.03 | 0.39 | 0.17 | 67 | 1008.0 |
| 20260506085143 | 55 | 192 | 2.6 | 6.1 | 0.04 | 0.39 | 0.17 | 67 | 1007.9 |
| 20260506084643 | 55 | 227 | 3.5 | 6.1 | 0.04 | 0.39 | 0.17 | 67 | 1007.8 |
| 20260506084143 | 55 | 219 | 3.5 | 6.1 | 0.04 | 0.39 | 0.17 | 68 | 1007.8 |
| 20260506083643 | 54 | 235 | 3.5 | 7.8 | 0.04 | 0.39 | 0.17 | 68 | 1007.8 |
| 20260506083143 | 54 | 194 | 3.5 | 7.8 | 0.03 | 0.39 | 0.17 | 67 | 1007.8 |
| 20260506082643 | 54 | 196 | 3.5 | 10.4 | 0.03 | 0.39 | 0.17 | 68 | 1007.8 |
| 20260506081643 | 54 | 259 | 2.6 | 8.7 | 0.03 | 0.39 | 0.17 | 68 | 1007.8 |
| 20260506081143 | 54 | 224 | 2.6 | 6.1 | 0.03 | 0.39 | 0.17 | 68 | 1007.8 |
| 20260506080904 | 54 | 215 | 1.7 | 6.1 | 0.03 | 0.39 | 0.17 | 68 | 1007.7 |
| 20260506080146 | 54 | 221 | 2.6 | 6.1 | 0.02 | 0.39 | 0.16 | 68 | 1007.7 |
| 20260506073143 | 53 | 175 | 2.6 | 4.3 | 0.00 | 0.39 | 0.13 | 68 | 1007.5 |
| 20260506072644 | 53 | 192 | 1.7 | 4.3 | 0.00 | 0.39 | 0.13 | 68 | 1007.4 |
| 20260506071643 | 53 | 175 | 2.6 | 3.5 | 0.00 | 0.39 | 0.13 | 68 | 1007.5 |
| 20260506071407 | 53 | 173 | 2.6 | 4.3 | 0.00 | 0.40 | 0.13 | 68 | 1007.4 |
| 20260506070644 | 53 | 169 | 3.5 | 4.3 | 0.00 | 0.40 | 0.13 | 68 | 1007.3 |
| 20260506070143 | 53 | 168 | 3.5 | 5.2 | 0.00 | 0.42 | 0.13 | 68 | 1007.3 |
| 20260506061643 | 52 | 185 | 2.6 | 4.3 | 0.01 | 0.52 | 0.13 | 68 | 1007.1 |
| 20260506060641 | 51 | 182 | 1.7 | 4.3 | 0.02 | 0.55 | 0.13 | 68 | 1007.2 |
| 20260506060140 | 51 | 181 | 2.6 | 4.3 | 0.02 | 0.55 | 0.13 | 68 | 1007.2 |
| 20260506051137 | 51 | 198 | 2.6 | 6.1 | 0.12 | 0.54 | 0.13 | 68 | 1006.9 |
| 20260506050637 | 51 | 209 | 2.6 | 6.1 | 0.12 | 0.54 | 0.12 | 68 | 1006.9 |
| 20260506050131 | 51 | 215 | 4.3 | 6.1 | 0.12 | 0.54 | 0.12 | 68 | 1006.8 |
| 20260506045130 | 51 | 213 | 4.3 | 6.1 | 0.09 | 0.50 | 0.09 | 68 | 1006.8 |
| 20260506044631 | 51 | 210 | 4.3 | 8.7 | 0.08 | 0.50 | 0.08 | 68 | 1006.8 |
| 20260506044342 | 51 | 218 | 4.3 | 8.7 | 0.06 | 0.48 | 0.07 | 68 | 1006.7 |
| 20260506043620 | 51 | 201 | 4.3 | 7.8 | 0.05 | 0.46 | 0.05 | 68 | 1006.8 |
| 20260506043120 | 51 | 205 | 3.5 | 7.0 | 0.03 | 0.45 | 0.03 | 68 | 1006.9 |
| 20260506042837 | 51 | 200 | 3.5 | 7.0 | 0.02 | 0.43 | 0.02 | 68 | 1006.9 |
| 20260506042120 | 51 | 220 | 2.6 | 4.3 | 0.01 | 0.43 | 0.01 | 68 | 1006.8 |
| 20260506041846 | 51 | 200 | 1.7 | 3.5 | 0.00 | 0.42 | 0.00 | 68 | 1006.9 |
| 20260506041401 | 51 | 192 | 1.7 | 3.5 | 0.00 | 0.43 | 0.00 | 68 | 1006.8 |
| 20260506040622 | 51 | 190 | 1.7 | 2.6 | 0.00 | 0.43 | 0.00 | 68 | 1006.9 |
| 20260506040115 | 51 | 185 | 0.9 | 2.6 | 0.00 | 0.43 | 0.00 | 68 | 1006.9 |
| 20260506035612 | 51 | 182 | 0.9 | 1.7 | 0.00 | 0.43 | 0.00 | 68 | 1006.8 |
| 20260506035107 | 51 | 182 | 0.0 | 1.7 | 0.00 | 0.43 | 0.00 | 68 | 1006.8 |
| 20260506034605 | 51 | 182 | 0.0 | 0.0 | 0.00 | 0.43 | 0.00 | 68 | 1006.9 |
| 20260506034105 | 50 | 182 | 0.0 | 0.0 | 0.00 | 0.43 | 0.00 | 68 | 1006.9 |
| 20260506033834 | 50 | 182 | 0.0 | 1.7 | 0.00 | 0.43 | 0.00 | 68 | 1007.0 |
| 20260506033105 | 50 | 182 | 0.9 | 1.7 | 0.00 | 0.43 | 0.00 | 68 | 1006.9 |
| 20260506032605 | 50 | 182 | 0.9 | 2.6 | 0.00 | 0.43 | 0.00 | 68 | 1006.9 |
| 20260506032105 | 50 | 182 | 0.9 | 2.6 | 0.00 | 0.43 | 0.00 | 68 | 1006.9 |
| 20260506031828 | 50 | 182 | 0.9 | 1.7 | 0.00 | 0.43 | 0.00 | 68 | 1006.9 |
| 20260506031105 | 50 | 182 | 0.9 | 1.7 | 0.00 | 0.43 | 0.00 | 68 | 1006.9 |
| 20260506030606 | 50 | 182 | 0.9 | 3.5 | 0.00 | 0.43 | 0.00 | 68 | 1006.9 |
| 20260506030119 | 50 | 182 | 0.9 | 3.5 | 0.00 | 0.43 | 0.00 | 68 | 1006.8 |
| 20260506025605 | 50 | 182 | 1.7 | 3.5 | 0.00 | 0.43 | 0.00 | 68 | 1006.8 |
| 20260506024106 | 50 | 181 | 1.7 | 3.5 | 0.00 | 0.43 | 0.00 | 68 | 1006.8 |
| 20260506023606 | 50 | 188 | 1.7 | 3.5 | 0.00 | 0.43 | 0.00 | 68 | 1006.9 |
| 20260506023105 | 50 | 203 | 2.6 | 3.5 | 0.00 | 0.43 | 0.00 | 68 | 1006.9 |
| 20260506022605 | 49 | 202 | 2.6 | 3.5 | 0.00 | 0.43 | 0.00 | 68 | 1006.9 |
| 20260506022105 | 49 | 211 | 2.6 | 3.5 | 0.00 | 0.43 | 0.00 | 68 | 1007.0 |
| 20260506021605 | 49 | 187 | 1.7 | 3.5 | 0.00 | 0.43 | 0.00 | 68 | 1006.9 |
| 20260506021105 | 49 | 180 | 1.7 | 3.5 | 0.00 | 0.43 | 0.00 | 68 | 1007.0 |
| 20260506020605 | 49 | 178 | 0.9 | 3.5 | 0.00 | 0.43 | 0.00 | 68 | 1007.0 |
| 20260506020108 | 49 | 178 | 0.9 | 2.6 | 0.00 | 0.43 | 0.00 | 68 | 1007.0 |
| 20260506015606 | 50 | 178 | 1.7 | 2.6 | 0.00 | 0.43 | 0.00 | 68 | 1007.0 |
| 20260506015105 | 50 | 178 | 0.9 | 2.6 | 0.00 | 0.43 | 0.00 | 68 | 1007.0 |
| 20260506014833 | 50 | 177 | 0.9 | 2.6 | 0.00 | 0.43 | 0.00 | 68 | 1007.1 |
| 20260506014105 | 50 | 177 | 0.9 | 2.6 | 0.00 | 0.43 | 0.00 | 68 | 1007.0 |
| 20260506013605 | 50 | 190 | 0.9 | 3.5 | 0.00 | 0.43 | 0.00 | 68 | 1007.1 |
| 20260506013328 | 50 | 190 | 0.9 | 3.5 | 0.00 | 0.43 | 0.00 | 68 | 1007.2 |
| 20260506012605 | 50 | 190 | 1.7 | 5.2 | 0.00 | 0.43 | 0.00 | 68 | 1007.1 |
| 20260506012105 | 50 | 189 | 2.6 | 5.2 | 0.00 | 0.43 | 0.00 | 68 | 1007.2 |
| 20260506011605 | 50 | 189 | 2.6 | 5.2 | 0.00 | 0.43 | 0.00 | 68 | 1007.2 |
| 20260506011105 | 50 | 188 | 2.6 | 5.2 | 0.00 | 0.43 | 0.00 | 68 | 1007.2 |
| 20260506010606 | 49 | 205 | 0.9 | 4.3 | 0.00 | 0.43 | 0.00 | 69 | 1007.2 |
| 20260506010107 | 49 | 238 | 0.0 | 0.0 | 0.00 | 0.43 | 0.00 | 69 | 1007.3 |
| 20260506005606 | 49 | 211 | 0.0 | 0.0 | 0.00 | 0.43 | 0.00 | 69 | 1007.3 |
| 20260506005106 | 49 | 220 | 0.0 | 0.0 | 0.00 | 0.43 | 0.00 | 69 | 1007.5 |
| 20260506004834 | 49 | 212 | 0.0 | 0.0 | 0.00 | 0.43 | 0.00 | 69 | 1007.5 |
| 20260506004326 | 49 | 212 | 0.0 | 0.0 | 0.00 | 0.43 | 0.00 | 69 | 1007.5 |
| 20260506003606 | 49 | 212 | 0.0 | 0.0 | 0.00 | 0.43 | 0.00 | 69 | 1007.6 |
| 20260506003325 | 49 | 213 | 0.0 | 0.0 | 0.00 | 0.43 | 0.00 | 69 | 1007.7 |
| 20260506002605 | 49 | 212 | 0.0 | 0.0 | 0.00 | 0.43 | 0.00 | 69 | 1007.7 |
| 20260506002105 | 49 | 225 | 0.0 | 0.0 | 0.00 | 0.44 | 0.00 | 69 | 1007.7 |
| 20260506001605 | 49 | 225 | 0.0 | 1.7 | 0.00 | 0.44 | 0.00 | 69 | 1007.8 |
| 20260506001105 | 49 | 229 | 0.0 | 1.7 | 0.00 | 0.44 | 0.00 | 69 | 1007.7 |
| 20260506000605 | 49 | 188 | 0.9 | 2.6 | 0.00 | 0.44 | 0.00 | 69 | 1007.7 |
| 20260506000118 | 49 | 188 | 0.9 | 2.6 | 0.00 | 0.44 | 0.00 | 69 | 1007.6 |
| 20260505235606 | 49 | 188 | 0.9 | 2.6 | 0.00 | 0.44 | 0.00 | 68 | 1007.7 |
| 20260505235105 | 49 | 188 | 0.9 | 2.6 | 0.00 | 0.44 | 0.00 | 68 | 1007.7 |
| 20260505234828 | 50 | 187 | 0.9 | 2.6 | 0.00 | 0.44 | 0.00 | 68 | 1007.9 |
| 20260505234105 | 50 | 187 | 0.9 | 2.6 | 0.00 | 0.44 | 0.00 | 68 | 1007.9 |
| 20260505233605 | 50 | 187 | 0.9 | 2.6 | 0.00 | 0.44 | 0.00 | 68 | 1007.9 |
| 20260505233106 | 50 | 187 | 0.9 | 1.7 | 0.00 | 0.44 | 0.00 | 68 | 1007.9 |
| 20260505232605 | 50 | 187 | 0.9 | 2.6 | 0.00 | 0.44 | 0.00 | 68 | 1007.8 |
| 20260505232105 | 50 | 187 | 0.9 | 2.6 | 0.00 | 0.44 | 0.00 | 68 | 1007.8 |
| 20260505231605 | 50 | 188 | 0.9 | 2.6 | 0.00 | 0.44 | 0.00 | 68 | 1007.9 |
| 20260505230605 | 50 | 188 | 1.7 | 2.6 | 0.00 | 0.45 | 0.00 | 68 | 1007.8 |
| 20260505230107 | 51 | 188 | 1.7 | 2.6 | 0.00 | 0.45 | 0.00 | 68 | 1007.7 |
| 20260505225601 | 51 | 190 | 1.7 | 2.6 | 0.00 | 0.46 | 0.00 | 68 | 1007.8 |
| 20260505225320 | 51 | 190 | 1.7 | 3.5 | 0.00 | 0.46 | 0.00 | 68 | 1007.8 |
| 20260505224601 | 51 | 189 | 1.7 | 3.5 | 0.00 | 0.46 | 0.00 | 68 | 1007.8 |
| 20260505224101 | 51 | 192 | 2.6 | 3.5 | 0.00 | 0.46 | 0.00 | 68 | 1007.9 |
| 20260505223601 | 51 | 192 | 2.6 | 3.5 | 0.00 | 0.46 | 0.00 | 68 | 1007.9 |
| 20260505223102 | 51 | 199 | 2.6 | 4.3 | 0.00 | 0.46 | 0.00 | 68 | 1007.9 |
| 20260505222601 | 51 | 191 | 2.6 | 4.3 | 0.00 | 0.47 | 0.00 | 69 | 1007.9 |
| 20260505222102 | 51 | 202 | 2.6 | 5.2 | 0.00 | 0.48 | 0.00 | 69 | 1007.9 |
| 20260505221601 | 51 | 198 | 2.6 | 5.2 | 0.00 | 0.49 | 0.00 | 69 | 1008.1 |
| 20260505221101 | 51 | 215 | 2.6 | 4.3 | 0.00 | 0.49 | 0.00 | 69 | 1008.1 |
| 20260505220601 | 51 | 225 | 1.7 | 4.3 | 0.00 | 0.49 | 0.00 | 69 | 1008.1 |
| 20260505215600 | 51 | 192 | 1.7 | 3.5 | 0.00 | 0.49 | 0.49 | 69 | 1008.2 |
| 20260505215326 | 51 | 190 | 1.7 | 3.5 | 0.00 | 0.49 | 0.49 | 69 | 1008.1 |
| 20260505214600 | 51 | 190 | 1.7 | 4.3 | 0.00 | 0.49 | 0.49 | 69 | 1008.1 |
| 20260505214101 | 51 | 190 | 2.6 | 4.3 | 0.00 | 0.49 | 0.49 | 69 | 1008.1 |
| 20260505213823 | 51 | 213 | 2.6 | 4.3 | 0.00 | 0.49 | 0.49 | 69 | 1008.2 |
| 20260505213100 | 51 | 201 | 1.7 | 4.3 | 0.00 | 0.49 | 0.49 | 69 | 1008.2 |
| 20260505212601 | 51 | 211 | 1.7 | 2.6 | 0.00 | 0.49 | 0.49 | 69 | 1008.3 |
| 20260505212101 | 51 | 210 | 0.9 | 2.6 | 0.00 | 0.49 | 0.49 | 69 | 1008.3 |
| 20260505211600 | 51 | 206 | 0.9 | 1.7 | 0.00 | 0.49 | 0.49 | 69 | 1008.3 |
| 20260505211101 | 51 | 206 | 0.9 | 2.6 | 0.00 | 0.49 | 0.49 | 69 | 1008.3 |
| 20260505210600 | 51 | 206 | 0.9 | 2.6 | 0.00 | 0.49 | 0.49 | 69 | 1008.3 |
| 20260505210111 | 52 | 206 | 0.9 | 2.6 | 0.00 | 0.49 | 0.49 | 70 | 1008.3 |
| 20260505205555 | 52 | 207 | 0.9 | 2.6 | 0.00 | 0.49 | 0.49 | 69 | 1008.2 |
| 20260505205051 | 52 | 207 | 1.7 | 2.6 | 0.00 | 0.49 | 0.49 | 69 | 1008.3 |
| 20260505204815 | 52 | 207 | 1.7 | 3.5 | 0.00 | 0.49 | 0.49 | 69 | 1008.3 |
| 20260505204051 | 52 | 208 | 1.7 | 3.5 | 0.00 | 0.49 | 0.49 | 69 | 1008.2 |
| 20260505203553 | 52 | 212 | 1.7 | 3.5 | 0.00 | 0.49 | 0.49 | 69 | 1008.1 |
| 20260505203052 | 52 | 221 | 2.6 | 3.5 | 0.00 | 0.49 | 0.49 | 69 | 1008.1 |
| 20260505202546 | 53 | 218 | 2.6 | 5.2 | 0.00 | 0.49 | 0.49 | 69 | 1008.2 |
| 20260505202045 | 53 | 211 | 2.6 | 5.2 | 0.00 | 0.50 | 0.49 | 69 | 1008.2 |
| 20260505201537 | 53 | 207 | 2.6 | 5.2 | 0.00 | 0.50 | 0.49 | 69 | 1008.1 |
| 20260505201038 | 53 | 222 | 2.6 | 5.2 | 0.00 | 0.50 | 0.49 | 69 | 1008.0 |
| 20260505200537 | 53 | 229 | 3.5 | 5.2 | 0.00 | 0.50 | 0.49 | 69 | 1008.1 |
| 20260505200037 | 53 | 233 | 3.5 | 7.0 | 0.00 | 0.50 | 0.49 | 69 | 1008.0 |
| 20260505195537 | 53 | 227 | 4.3 | 7.0 | 0.00 | 0.50 | 0.49 | 68 | 1008.0 |
| 20260505195252 | 53 | 215 | 4.3 | 9.6 | 0.00 | 0.50 | 0.49 | 68 | 1008.0 |
| 20260505194030 | 54 | 229 | 4.3 | 10.4 | 0.00 | 0.50 | 0.49 | 68 | 1007.9 |
| 20260505193752 | 54 | 273 | 5.2 | 10.4 | 0.00 | 0.50 | 0.49 | 68 | 1007.9 |
| 20260505193030 | 54 | 208 | 5.2 | 9.6 | 0.00 | 0.50 | 0.49 | 68 | 1007.9 |
| 20260505192527 | 54 | 225 | 4.3 | 9.6 | 0.00 | 0.50 | 0.49 | 68 | 1007.8 |
| 20260505192256 | 55 | 219 | 4.3 | 9.6 | 0.00 | 0.50 | 0.49 | 68 | 1007.9 |
| 20260505191527 | 55 | 229 | 4.3 | 11.3 | 0.00 | 0.50 | 0.49 | 68 | 1007.9 |
| 20260505191031 | 55 | 250 | 3.5 | 11.3 | 0.00 | 0.50 | 0.49 | 69 | 1007.8 |
| 20260505190527 | 55 | 269 | 2.6 | 9.6 | 0.00 | 0.50 | 0.49 | 69 | 1007.7 |
| 20260505190030 | 55 | 228 | 1.7 | 4.3 | 0.00 | 0.50 | 0.49 | 69 | 1007.7 |
| 20260505185527 | 55 | 193 | 1.7 | 4.3 | 0.00 | 0.50 | 0.49 | 69 | 1007.7 |
| 20260505185031 | 55 | 259 | 1.7 | 4.3 | 0.00 | 0.50 | 0.49 | 68 | 1007.7 |
| 20260505184523 | 56 | 240 | 0.9 | 5.2 | 0.00 | 0.50 | 0.49 | 69 | 1007.7 |
| 20260505184021 | 56 | 289 | 0.9 | 5.2 | 0.00 | 0.50 | 0.49 | 69 | 1007.6 |
| 20260505183517 | 56 | 222 | 1.7 | 6.1 | 0.00 | 0.50 | 0.49 | 69 | 1007.5 |
| 20260505183017 | 56 | 217 | 2.6 | 6.1 | 0.00 | 0.50 | 0.49 | 68 | 1007.5 |
| 20260505182517 | 56 | 217 | 2.6 | 5.2 | 0.00 | 0.50 | 0.49 | 68 | 1007.5 |
| 20260505182019 | 56 | 204 | 2.6 | 5.2 | 0.00 | 0.50 | 0.49 | 68 | 1007.4 |
| 20260505181509 | 56 | 211 | 2.6 | 5.2 | 0.00 | 0.50 | 0.49 | 68 | 1007.4 |
| 20260505181235 | 56 | 178 | 2.6 | 5.2 | 0.00 | 0.50 | 0.49 | 68 | 1007.5 |
| 20260505180509 | 56 | 209 | 1.7 | 3.5 | 0.00 | 0.50 | 0.49 | 68 | 1007.4 |
| 20260505180011 | 56 | 196 | 1.7 | 6.1 | 0.00 | 0.50 | 0.49 | 68 | 1007.5 |
| 20260505175504 | 56 | 223 | 2.6 | 6.1 | 0.00 | 0.50 | 0.49 | 68 | 1007.4 |
| 20260505175228 | 56 | 229 | 3.5 | 8.7 | 0.00 | 0.50 | 0.49 | 67 | 1007.5 |
| 20260505174454 | 56 | 296 | 3.5 | 7.8 | 0.00 | 0.50 | 0.49 | 67 | 1007.5 |
| 20260505173954 | 57 | 213 | 3.5 | 6.1 | 0.00 | 0.50 | 0.49 | 67 | 1007.6 |
| 20260505173456 | 57 | 192 | 2.6 | 6.1 | 0.00 | 0.50 | 0.49 | 67 | 1007.5 |
| 20260505172951 | 57 | 183 | 3.5 | 7.8 | 0.00 | 0.50 | 0.49 | 67 | 1007.5 |
| 20260505172452 | 57 | 200 | 3.5 | 7.8 | 0.00 | 0.50 | 0.49 | 67 | 1007.6 |
| 20260505172200 | 57 | 223 | 2.6 | 7.0 | 0.00 | 0.50 | 0.49 | 67 | 1007.5 |
| 20260505171435 | 57 | 223 | 2.6 | 5.2 | 0.00 | 0.50 | 0.49 | 67 | 1007.6 |
| 20260505171151 | 56 | 207 | 2.6 | 8.7 | 0.00 | 0.50 | 0.49 | 67 | 1007.6 |
| 20260505170421 | 56 | 221 | 3.5 | 8.7 | 0.00 | 0.50 | 0.49 | 67 | 1007.6 |
| 20260505165922 | 56 | 261 | 3.5 | 8.7 | 0.00 | 0.50 | 0.49 | 67 | 1007.6 |
| 20260505165421 | 57 | 252 | 3.5 | 8.7 | 0.00 | 0.50 | 0.49 | 67 | 1007.7 |
| 20260505164920 | 56 | 290 | 4.3 | 8.7 | 0.00 | 0.50 | 0.49 | 67 | 1007.7 |
| 20260505164415 | 56 | 240 | 3.5 | 8.7 | 0.01 | 0.50 | 0.49 | 67 | 1007.7 |
| 20260505163912 | 56 | 199 | 3.5 | 7.0 | 0.02 | 0.50 | 0.49 | 68 | 1007.6 |
| 20260505163413 | 56 | 207 | 3.5 | 7.0 | 0.02 | 0.50 | 0.49 | 68 | 1007.7 |
| 20260505162910 | 56 | 248 | 2.6 | 5.2 | 0.03 | 0.50 | 0.49 | 68 | 1007.7 |
| 20260505162631 | 56 | 195 | 2.6 | 4.3 | 0.03 | 0.50 | 0.49 | 68 | 1007.7 |
| 20260505162131 | 56 | 230 | 1.7 | 4.3 | 0.03 | 0.50 | 0.49 | 68 | 1007.7 |
| 20260505161409 | 56 | 211 | 1.7 | 4.3 | 0.03 | 0.50 | 0.49 | 68 | 1007.7 |
| 20260505161130 | 56 | 175 | 2.6 | 4.3 | 0.03 | 0.50 | 0.49 | 68 | 1007.7 |
| 20260505160408 | 56 | 184 | 1.7 | 4.3 | 0.03 | 0.50 | 0.49 | 68 | 1007.7 |
| 20260505152905 | 55 | 214 | 3.5 | 6.1 | 0.01 | 0.47 | 0.46 | 68 | 1007.9 |
| 20260505152405 | 55 | 278 | 4.3 | 7.8 | 0.01 | 0.47 | 0.46 | 68 | 1007.9 |
| 20260505151906 | 55 | 281 | 3.5 | 7.8 | 0.01 | 0.47 | 0.46 | 68 | 1007.9 |
| 20260505151405 | 55 | 236 | 3.5 | 9.6 | 0.01 | 0.47 | 0.46 | 68 | 1007.9 |
| 20260505150905 | 55 | 229 | 3.5 | 9.6 | 0.01 | 0.47 | 0.46 | 68 | 1007.9 |
| 20260505150406 | 55 | 273 | 1.7 | 5.2 | 0.02 | 0.47 | 0.46 | 68 | 1008.0 |